When you browse on this site, cookies collect data to enhance your experience and personalize the content and advertising you see.
Visit our Privacy Policy to learn more. By continuing to use the site, you agree to this use of cookies and data.
  • In Hungary
  • List of Countries
  • For 7 days
  • Water Temperature
  • Weather Map
  • News
  • Weather Widgets
  • user-avatar
    Login

    Hourly Weather Lvov

    Today, 15 October, Tuesday

    Time Temperature Precipitation Wind Pressure Humidity
    00:00 +15°C° 0 mm 2 mps 759 mmHg 66%
    01:00 +15°C° 0 mm 2 mps 759 mmHg 67%
    02:00 +15°C° 0 mm 2 mps 758 mmHg 67%
    03:00 +14°C° 0 mm 2 mps 758 mmHg 67%
    04:00 +14°C° 0 mm 2 mps 758 mmHg 67%
    05:00 +14°C° 0 mm 2 mps 758 mmHg 66%
    06:00 +13°C° 0 mm 1 mps 758 mmHg 66%
    07:00 +15°C° 0 mm 2 mps 758 mmHg 61%
    08:00 +16°C° 0 mm 2 mps 758 mmHg 56%
    09:00 +17°C° 0 mm 2 mps 758 mmHg 51%
    10:00 +19°C° 0 mm 2 mps 758 mmHg 45%
    11:00 +20°C° 0 mm 2 mps 758 mmHg 40%
    12:00 +23°C° 0 mm 2 mps 757 mmHg 34%
    13:00 +24°C° 0 mm 2 mps 757 mmHg 33%
    14:00 +24°C° 0 mm 1 mps 757 mmHg 31%
    15:00 +25°C° 0 mm 1 mps 757 mmHg 30%
    16:00 +23°C° 0 mm 1 mps 756 mmHg 34%
    17:00 +22°C° 0 mm 1 mps 756 mmHg 38%
    18:00 +18°C° 0 mm 0 mps 756 mmHg 42%
    19:00 +19°C° 0 mm 1 mps 756 mmHg 42%
    20:00 +19°C° 0 mm 1 mps 756 mmHg 43%
    21:00 +19°C° 0 mm 1 mps 757 mmHg 44%
    22:00 +18°C° 0 mm 1 mps 756 mmHg 46%
    23:00 +18°C° 0 mm 1 mps 756 mmHg 48%

    Tomorrow, 16 October, Wednesday

    Time Temperature Precipitation Wind Pressure Humidity
    00:00 +16°C° 0 mm 2 mps 756 mmHg 50%
    01:00 +16°C° 0 mm 2 mps 756 mmHg 52%
    02:00 +15°C° 0 mm 2 mps 756 mmHg 53%
    03:00 +15°C° 0 mm 2 mps 757 mmHg 55%
    04:00 +15°C° 0 mm 2 mps 757 mmHg 56%
    05:00 +14°C° 0 mm 2 mps 757 mmHg 58%
    06:00 +14°C° 0 mm 2 mps 756 mmHg 59%
    07:00 +14°C° 0 mm 3 mps 757 mmHg 56%
    08:00 +17°C° 0 mm 3 mps 757 mmHg 53%
    09:00 +18°C° 0 mm 3 mps 758 mmHg 50%
    10:00 +20°C° 0 mm 3 mps 758 mmHg 46%
    11:00 +21°C° 0 mm 3 mps 758 mmHg 41%
    12:00 +24°C° 0 mm 3 mps 758 mmHg 37%
    13:00 +24°C° 0 mm 3 mps 757 mmHg 37%
    14:00 +23°C° 0 mm 4 mps 757 mmHg 37%
    15:00 +23°C° 0 mm 4 mps 757 mmHg 37%
    16:00 +22°C° 0 mm 4 mps 757 mmHg 44%
    17:00 +20°C° 0 mm 4 mps 757 mmHg 52%
    18:00 +18°C° 0 mm 4 mps 757 mmHg 59%
    19:00 +17°C° 0 mm 5 mps 757 mmHg 63%
    20:00 +16°C° 0 mm 5 mps 758 mmHg 66%
    21:00 +16°C° 0 mm 5 mps 758 mmHg 70%
    22:00 +15°C° 0 mm 5 mps 758 mmHg 71%
    23:00 +14°C° 0 mm 5 mps 758 mmHg 72%

    Day after tomorrow, 17 October, Thursday

    Time Temperature Precipitation Wind Pressure Humidity
    00:00 +14°C° 0 mm 6 mps 758 mmHg 73%
    01:00 +13°C° 0 mm 6 mps 758 mmHg 73%
    02:00 +13°C° 0 mm 5 mps 758 mmHg 73%
    03:00 +12°C° 0 mm 5 mps 758 mmHg 73%
    04:00 +12°C° 0 mm 5 mps 758 mmHg 73%
    05:00 +12°C° 0 mm 5 mps 758 mmHg 73%
    06:00 +10°C° 0 mm 5 mps 758 mmHg 73%
    07:00 +13°C° 0 mm 5 mps 758 mmHg 71%
    08:00 +14°C° 0 mm 6 mps 758 mmHg 69%
    09:00 +15°C° 0 mm 6 mps 758 mmHg 67%
    10:00 +16°C° 0 mm 6 mps 758 mmHg 62%
    11:00 +19°C° 0 mm 6 mps 758 mmHg 57%
    12:00 +20°C° 0 mm 6 mps 758 mmHg 52%
    13:00 +20°C° 0 mm 6 mps 758 mmHg 50%
    14:00 +21°C° 0 mm 6 mps 757 mmHg 48%
    15:00 +21°C° 0 mm 6 mps 757 mmHg 45%
    16:00 +20°C° 0 mm 6 mps 757 mmHg 50%
    17:00 +19°C° 0 mm 5 mps 757 mmHg 54%
    18:00 +17°C° 0 mm 4 mps 756 mmHg 59%
    19:00 +17°C° 0 mm 4 mps 756 mmHg 61%
    20:00 +15°C° 0 mm 5 mps 756 mmHg 63%
    21:00 +15°C° 0 mm 5 mps 756 mmHg 66%
    22:00 +14°C° 0 mm 5 mps 756 mmHg 68%
    23:00 +14°C° 0 mm 4 mps 756 mmHg 71%

    18 October, Friday

    Time Temperature Precipitation Wind Pressure Humidity
    00:00 +13°C° 0 mm 4 mps 756 mmHg 73%
    01:00 +12°C° 0 mm 4 mps 755 mmHg 75%
    02:00 +12°C° 0 mm 4 mps 755 mmHg 78%
    03:00 +12°C° 0 mm 4 mps 755 mmHg 80%
    04:00 +11°C° 0 mm 4 mps 755 mmHg 82%
    05:00 +11°C° 0 mm 3 mps 755 mmHg 84%
    06:00 +11°C° 0 mm 3 mps 755 mmHg 86%
    07:00 +12°C° 0 mm 4 mps 755 mmHg 81%
    08:00 +13°C° 0 mm 4 mps 755 mmHg 76%
    09:00 +14°C° 0 mm 4 mps 755 mmHg 71%
    10:00 +17°C° 0 mm 4 mps 755 mmHg 63%
    11:00 +19°C° 0 mm 4 mps 755 mmHg 55%
    12:00 +20°C° 0 mm 4 mps 754 mmHg 48%
    13:00 +21°C° 0 mm 3 mps 754 mmHg 46%
    14:00 +21°C° 0 mm 2 mps 754 mmHg 45%
    15:00 +23°C° 0 mm 2 mps 754 mmHg 43%
    16:00 +20°C° 0 mm 2 mps 754 mmHg 47%
    17:00 +20°C° 0 mm 1 mps 753 mmHg 51%
    18:00 +19°C° 0 mm 1 mps 753 mmHg 55%
    19:00 +18°C° 0 mm 1 mps 754 mmHg 56%
    20:00 +17°C° 0 mm 2 mps 754 mmHg 57%
    21:00 +16°C° 0 mm 2 mps 754 mmHg 57%
    22:00 +16°C° 0 mm 2 mps 754 mmHg 57%
    23:00 +15°C° 0 mm 2 mps 754 mmHg 58%

    19 October, Saturday

    Time Temperature Precipitation Wind Pressure Humidity
    00:00 +15°C° 0 mm 2 mps 754 mmHg 58%
    01:00 +14°C° 0 mm 2 mps 754 mmHg 58%
    02:00 +14°C° 0 mm 2 mps 754 mmHg 59%
    03:00 +14°C° 0 mm 2 mps 755 mmHg 59%
    04:00 +14°C° 0 mm 2 mps 755 mmHg 60%
    05:00 +13°C° 0 mm 2 mps 755 mmHg 61%
    06:00 +13°C° 0 mm 2 mps 756 mmHg 62%
    07:00 +14°C° 0 mm 2 mps 756 mmHg 59%
    08:00 +16°C° 0 mm 2 mps 756 mmHg 55%
    09:00 +17°C° 0 mm 2 mps 757 mmHg 51%
    10:00 +18°C° 0 mm 2 mps 757 mmHg 47%
    11:00 +20°C° 0 mm 2 mps 757 mmHg 43%
    12:00 +21°C° 0 mm 2 mps 757 mmHg 39%
    13:00 +23°C° 0 mm 2 mps 757 mmHg 38%
    14:00 +23°C° 0 mm 2 mps 757 mmHg 37%
    15:00 +24°C° 0 mm 2 mps 756 mmHg 36%
    16:00 +21°C° 0 mm 2 mps 756 mmHg 40%
    17:00 +19°C° 0 mm 3 mps 757 mmHg 44%
    18:00 +18°C° 0 mm 3 mps 757 mmHg 48%
    19:00 +17°C° 0 mm 3 mps 757 mmHg 50%
    20:00 +17°C° 0 mm 4 mps 757 mmHg 51%
    21:00 +15°C° 0 mm 4 mps 757 mmHg 52%
    22:00 +15°C° 0 mm 4 mps 757 mmHg 53%
    23:00 +14°C° 0 mm 4 mps 757 mmHg 54%

    20 October, Sunday

    Time Temperature Precipitation Wind Pressure Humidity
    00:00 +14°C° 0 mm 4 mps 757 mmHg 55%
    01:00 +13°C° 0 mm 4 mps 757 mmHg 57%
    02:00 +13°C° 0 mm 4 mps 758 mmHg 58%
    03:00 +12°C° 0 mm 4 mps 758 mmHg 60%
    04:00 +12°C° 0 mm 4 mps 758 mmHg 65%
    05:00 +12°C° 0 mm 4 mps 758 mmHg 69%
    06:00 +11°C° 0 mm 4 mps 758 mmHg 74%
    07:00 +12°C° 0 mm 5 mps 759 mmHg 68%
    08:00 +13°C° 0 mm 5 mps 759 mmHg 63%
    09:00 +14°C° 0 mm 6 mps 759 mmHg 57%
    10:00 +15°C° 0 mm 6 mps 759 mmHg 53%
    11:00 +16°C° 0 mm 6 mps 759 mmHg 49%
    12:00 +18°C° 0 mm 7 mps 760 mmHg 45%
    13:00 +18°C° 0 mm 7 mps 759 mmHg 45%
    14:00 +18°C° 0 mm 7 mps 759 mmHg 44%
    15:00 +18°C° 0 mm 7 mps 759 mmHg 43%
    16:00 +17°C° 0 mm 6 mps 759 mmHg 47%
    17:00 +16°C° 0 mm 6 mps 759 mmHg 51%
    18:00 +14°C° 0 mm 5 mps 760 mmHg 55%
    19:00 +14°C° 0 mm 6 mps 760 mmHg 56%
    20:00 +13°C° 0 mm 6 mps 760 mmHg 57%
    21:00 +13°C° 0 mm 6 mps 760 mmHg 59%
    22:00 +11°C° 0 mm 6 mps 760 mmHg 58%
    23:00 +11°C° 0 mm 6 mps 761 mmHg 58%
    Show more